Location: Colonia Mina de C?rbuni
(46.1667°N, 22.7167°E)
Time: 06:50:00
(UTC+00:00)

ATLAS 2AS CENTAUR R/B - Pass Details

Date: 04 February 2023
Orbit: 986 x 1226 km, 63.7° (Epoch: 31 January)

Event Time Altitude Azimuth Distance (km) Brightness Sun altitude
Rises 17:40:42 0° 316° (NW) 3,938 6.3 -21.5°
Reaches altitude 10° 17:43:43 10° 307° (NW) 2,937 5.7 -22.0°
Maximum altitude 17:49:41 33° 247° (WSW) 1,694 4.3 -23.0°
Drops below altitude 10° 17:55:24 10° 186° (S) 2,789 4.9 -24.0°
Sets 17:58:12 0° 177° (S) 3,713 5.5 -24.5°
